Year,Month,Day,Hour,Minute,Value (Times are PST for temperature in C)
2015,06,26,00,00,15.30
2015,06,26,00,01,15.30
2015,06,26,00,02,15.20
2015,06,26,00,03,15.20
2015,06,26,00,04,15.20
2015,06,26,00,05,15.20
2015,06,26,00,06,15.20
2015,06,26,00,07,15.20
2015,06,26,00,08,15.20
2015,06,26,00,09,15.20
2015,06,26,00,10,15.20
2015,06,26,00,11,15.20
2015,06,26,00,12,15.20
2015,06,26,00,13,15.10
2015,06,26,00,14,15.10
2015,06,26,00,15,15.10
2015,06,26,00,16,15.10
2015,06,26,00,17,15.10
2015,06,26,00,18,15.10
2015,06,26,00,19,15.10
2015,06,26,00,20,15.00
2015,06,26,00,21,15.00
2015,06,26,00,22,15.00
2015,06,26,00,23,15.00
2015,06,26,00,24,15.00
2015,06,26,00,25,15.00
2015,06,26,00,26,14.90
2015,06,26,00,27,14.90
2015,06,26,00,28,14.90
2015,06,26,00,29,14.90
2015,06,26,00,30,14.90
2015,06,26,00,31,14.90
2015,06,26,00,32,14.90
2015,06,26,00,33,14.90
2015,06,26,00,34,14.90
2015,06,26,00,35,14.90
2015,06,26,00,36,14.90
2015,06,26,00,37,14.90
2015,06,26,00,38,14.90
2015,06,26,00,39,14.90
2015,06,26,00,40,14.90
2015,06,26,00,41,14.90
2015,06,26,00,42,14.90
2015,06,26,00,43,14.90
2015,06,26,00,44,14.90
2015,06,26,00,45,14.90
2015,06,26,00,46,14.90
2015,06,26,00,47,15.00
2015,06,26,00,48,15.00
2015,06,26,00,49,15.00
2015,06,26,00,50,15.00
2015,06,26,00,51,15.00
2015,06,26,00,52,15.10
2015,06,26,00,53,15.10
2015,06,26,00,54,15.10
2015,06,26,00,55,15.10
2015,06,26,00,56,15.10
2015,06,26,00,57,15.10
2015,06,26,00,58,15.10
2015,06,26,00,59,15.10
2015,06,26,01,00,15.10
2015,06,26,01,01,15.10
2015,06,26,01,02,15.10
2015,06,26,01,03,15.10
2015,06,26,01,04,15.20
2015,06,26,01,05,15.20
2015,06,26,01,06,15.20
2015,06,26,01,07,15.20
2015,06,26,01,08,15.20
2015,06,26,01,09,15.20
2015,06,26,01,10,15.20
2015,06,26,01,11,15.20
2015,06,26,01,12,15.20
2015,06,26,01,13,15.20
2015,06,26,01,14,15.20
2015,06,26,01,15,15.20
2015,06,26,01,16,15.20
2015,06,26,01,17,15.20
2015,06,26,01,18,15.20
2015,06,26,01,19,15.20
2015,06,26,01,20,15.20
2015,06,26,01,21,15.20
2015,06,26,01,22,15.20
2015,06,26,01,23,15.20
2015,06,26,01,24,15.20
2015,06,26,01,25,15.20
2015,06,26,01,26,15.20
2015,06,26,01,27,15.20
2015,06,26,01,28,15.20
2015,06,26,01,29,15.20
2015,06,26,01,30,15.20
2015,06,26,01,31,15.30
2015,06,26,01,32,15.20
2015,06,26,01,33,15.20
2015,06,26,01,34,15.30
2015,06,26,01,35,15.30
2015,06,26,01,36,15.20
2015,06,26,01,37,15.20
2015,06,26,01,38,15.20
2015,06,26,01,39,15.20
2015,06,26,01,40,15.10
2015,06,26,01,41,15.10
2015,06,26,01,42,15.10
2015,06,26,01,43,15.10
2015,06,26,01,44,15.10
2015,06,26,01,45,15.00
2015,06,26,01,46,14.90
2015,06,26,01,47,14.90
2015,06,26,01,48,14.90
2015,06,26,01,49,14.90
2015,06,26,01,50,14.80
2015,06,26,01,51,14.80
2015,06,26,01,52,14.80
2015,06,26,01,53,14.80
2015,06,26,01,54,14.80
2015,06,26,01,55,14.90
2015,06,26,01,56,14.90
2015,06,26,01,57,14.90
2015,06,26,01,58,14.90
2015,06,26,01,59,14.90
2015,06,26,02,00,14.90
2015,06,26,02,01,14.90
2015,06,26,02,02,14.90
2015,06,26,02,03,14.90
2015,06,26,02,04,14.90
2015,06,26,02,05,14.90
2015,06,26,02,06,14.90
2015,06,26,02,07,14.90
2015,06,26,02,08,14.90
2015,06,26,02,09,14.90
2015,06,26,02,10,14.90
2015,06,26,02,11,14.90
2015,06,26,02,12,14.90
2015,06,26,02,13,14.90
2015,06,26,02,14,14.90
2015,06,26,02,15,14.90
2015,06,26,02,16,14.90
2015,06,26,02,17,14.90
2015,06,26,02,18,14.90
2015,06,26,02,19,14.90
2015,06,26,02,20,14.90
2015,06,26,02,21,14.90
2015,06,26,02,22,14.90
2015,06,26,02,23,14.90
2015,06,26,02,24,14.80
2015,06,26,02,25,14.80
2015,06,26,02,26,14.80
2015,06,26,02,27,14.80
2015,06,26,02,28,14.80
2015,06,26,02,29,14.80
2015,06,26,02,30,14.80
2015,06,26,02,31,14.80
2015,06,26,02,32,14.80
2015,06,26,02,33,14.70
2015,06,26,02,34,14.70
2015,06,26,02,35,14.70
2015,06,26,02,36,14.80
2015,06,26,02,37,14.80
2015,06,26,02,38,14.80
2015,06,26,02,39,14.80
2015,06,26,02,40,14.80
2015,06,26,02,41,14.80
2015,06,26,02,42,14.80
2015,06,26,02,43,14.80
2015,06,26,02,44,14.80
2015,06,26,02,45,14.80
2015,06,26,02,46,14.80
2015,06,26,02,47,14.80
2015,06,26,02,48,14.80
2015,06,26,02,49,14.80
2015,06,26,02,50,14.80
2015,06,26,02,51,14.80
2015,06,26,02,52,14.80
2015,06,26,02,53,14.80
2015,06,26,02,54,14.80
2015,06,26,02,55,14.80
2015,06,26,02,56,14.70
2015,06,26,02,57,14.70
2015,06,26,02,58,14.70
2015,06,26,02,59,14.70
2015,06,26,03,00,14.70
2015,06,26,03,01,14.70
2015,06,26,03,02,14.70
2015,06,26,03,03,14.80
2015,06,26,03,04,14.80
2015,06,26,03,05,14.80
2015,06,26,03,06,14.80
2015,06,26,03,07,14.80
2015,06,26,03,08,14.80
2015,06,26,03,09,14.80
2015,06,26,03,10,14.80
2015,06,26,03,11,14.80
2015,06,26,03,12,14.80
2015,06,26,03,13,14.80
2015,06,26,03,14,14.70
2015,06,26,03,15,14.70
2015,06,26,03,16,14.70
2015,06,26,03,17,14.70
2015,06,26,03,18,14.70
2015,06,26,03,19,14.70
2015,06,26,03,20,14.70
2015,06,26,03,21,14.70
2015,06,26,03,22,14.70
2015,06,26,03,23,14.60
2015,06,26,03,24,14.60
2015,06,26,03,25,14.60
2015,06,26,03,26,14.60
2015,06,26,03,27,14.60
2015,06,26,03,28,14.60
2015,06,26,03,29,14.60
2015,06,26,03,30,14.60
2015,06,26,03,31,14.60
2015,06,26,03,32,14.60
2015,06,26,03,33,14.70
2015,06,26,03,34,14.70
2015,06,26,03,35,14.70
2015,06,26,03,36,14.70
2015,06,26,03,37,14.70
2015,06,26,03,38,14.70
2015,06,26,03,39,14.70
2015,06,26,03,40,14.70
2015,06,26,03,41,14.70
2015,06,26,03,42,14.70
2015,06,26,03,43,14.70
2015,06,26,03,44,14.70
2015,06,26,03,45,14.60
2015,06,26,03,46,14.60
2015,06,26,03,47,14.60
2015,06,26,03,48,14.60
2015,06,26,03,49,14.60
2015,06,26,03,50,14.60
2015,06,26,03,51,14.60
2015,06,26,03,52,14.60
2015,06,26,03,53,14.50
2015,06,26,03,54,14.50
2015,06,26,03,55,14.50
2015,06,26,03,56,14.60
2015,06,26,03,57,14.60
2015,06,26,03,58,14.60
2015,06,26,03,59,14.60
2015,06,26,04,00,14.60
2015,06,26,04,01,14.60
2015,06,26,04,02,14.60
2015,06,26,04,03,14.60
2015,06,26,04,04,14.60
2015,06,26,04,05,14.60
2015,06,26,04,06,14.60
2015,06,26,04,07,14.60
2015,06,26,05,02,14.10
2015,06,26,05,03,14.10
2015,06,26,05,04,14.10
2015,06,26,05,05,14.10
2015,06,26,05,06,14.10
2015,06,26,05,07,14.10
2015,06,26,05,08,14.10
2015,06,26,05,09,14.10
2015,06,26,05,10,14.10
2015,06,26,05,11,14.10
2015,06,26,05,12,14.10
2015,06,26,05,13,14.10
2015,06,26,05,14,14.10
2015,06,26,05,15,14.10
2015,06,26,05,16,14.10
2015,06,26,05,17,14.10
2015,06,26,05,18,14.10
2015,06,26,05,19,14.10
2015,06,26,05,20,14.10
2015,06,26,05,21,14.10
2015,06,26,05,22,14.10
2015,06,26,05,23,14.10
2015,06,26,05,24,14.10
2015,06,26,05,25,14.00
2015,06,26,05,26,14.00
2015,06,26,05,27,13.90
2015,06,26,05,28,13.90
2015,06,26,05,29,13.90
2015,06,26,05,30,13.80
2015,06,26,05,31,13.80
2015,06,26,05,32,13.80
2015,06,26,05,33,13.80
2015,06,26,05,34,13.70
2015,06,26,05,35,13.70
2015,06,26,05,36,13.70
2015,06,26,05,37,13.70
2015,06,26,05,38,13.70
2015,06,26,05,39,13.70
2015,06,26,05,40,13.70
2015,06,26,05,41,13.70
2015,06,26,05,42,13.70
2015,06,26,05,43,13.70
2015,06,26,05,44,13.70
2015,06,26,05,45,13.70
2015,06,26,05,46,13.70
2015,06,26,05,47,13.70
2015,06,26,05,48,13.70
2015,06,26,05,49,13.70
2015,06,26,05,50,13.70
2015,06,26,05,51,13.70
2015,06,26,05,52,13.70
2015,06,26,05,53,13.70
2015,06,26,05,54,13.70
2015,06,26,05,55,13.70
2015,06,26,05,56,13.70
2015,06,26,05,57,13.80
2015,06,26,05,58,13.70
2015,06,26,05,59,13.80
2015,06,26,06,00,13.80
2015,06,26,06,01,13.80
2015,06,26,06,02,13.80
2015,06,26,06,03,13.80
2015,06,26,06,04,13.80
2015,06,26,06,05,13.80
2015,06,26,06,06,13.80
2015,06,26,06,07,13.80
2015,06,26,06,08,13.80
2015,06,26,06,09,13.80
2015,06,26,06,10,13.80
2015,06,26,06,11,13.80
2015,06,26,06,12,13.80
2015,06,26,06,13,13.80
2015,06,26,06,14,13.80
2015,06,26,06,15,13.80
2015,06,26,06,16,13.80
2015,06,26,06,17,13.80
2015,06,26,06,18,13.80
2015,06,26,06,19,13.80
2015,06,26,06,20,13.80
2015,06,26,06,21,13.80
2015,06,26,06,22,13.80
2015,06,26,06,23,13.80
2015,06,26,06,24,13.80
2015,06,26,06,25,13.90
2015,06,26,06,26,13.90
2015,06,26,06,27,13.90
2015,06,26,06,28,13.90
2015,06,26,06,29,13.90
2015,06,26,06,30,13.90
2015,06,26,06,31,13.90
2015,06,26,06,32,13.90
2015,06,26,06,33,13.90
2015,06,26,06,34,13.90
2015,06,26,06,35,13.90
2015,06,26,06,36,13.90
2015,06,26,06,37,13.90
2015,06,26,06,38,13.90
2015,06,26,06,39,13.90
2015,06,26,06,40,13.90
2015,06,26,06,41,14.00
2015,06,26,06,42,14.00
2015,06,26,06,43,14.10
2015,06,26,06,44,14.10
2015,06,26,06,45,14.10
2015,06,26,06,46,14.10
2015,06,26,06,47,14.10
2015,06,26,06,48,14.10
2015,06,26,06,49,14.10
2015,06,26,06,50,14.10
2015,06,26,06,51,14.10
2015,06,26,06,52,14.20
2015,06,26,06,53,14.20
2015,06,26,06,54,14.20
2015,06,26,06,55,14.20
2015,06,26,06,56,14.20
2015,06,26,06,57,14.20
2015,06,26,06,58,14.30
2015,06,26,06,59,14.30
2015,06,26,07,00,14.30
2015,06,26,07,01,14.30
2015,06,26,07,02,14.30
2015,06,26,07,03,14.30
2015,06,26,07,04,14.40
2015,06,26,07,05,14.40
2015,06,26,07,06,14.40
2015,06,26,07,07,14.40
2015,06,26,07,08,14.40
2015,06,26,07,09,14.40
2015,06,26,07,10,14.40
2015,06,26,07,11,14.50
2015,06,26,07,12,14.50
2015,06,26,07,13,14.50
2015,06,26,07,14,14.50
2015,06,26,07,15,14.50
2015,06,26,07,16,14.50
2015,06,26,07,17,14.60
2015,06,26,07,18,14.60
2015,06,26,07,19,14.60
2015,06,26,07,20,14.50
2015,06,26,07,21,14.50
2015,06,26,07,22,14.50
2015,06,26,07,23,14.50
2015,06,26,07,24,14.40
2015,06,26,07,25,14.40
2015,06,26,07,26,14.40
2015,06,26,07,27,14.40
2015,06,26,07,28,14.40
2015,06,26,07,29,14.40
2015,06,26,07,30,14.40
2015,06,26,07,31,14.40
2015,06,26,07,32,14.40
2015,06,26,07,33,14.40
2015,06,26,07,34,14.40
2015,06,26,07,35,14.40
2015,06,26,07,36,14.50
2015,06,26,07,37,14.50
2015,06,26,07,38,14.50
2015,06,26,07,39,14.50
2015,06,26,07,40,14.50
2015,06,26,07,41,14.60
2015,06,26,07,42,14.60
2015,06,26,07,43,14.60
2015,06,26,07,44,14.60
2015,06,26,07,45,14.60
2015,06,26,07,46,14.60
2015,06,26,07,47,14.60
2015,06,26,07,48,14.60
2015,06,26,07,49,14.60
2015,06,26,07,50,14.60
2015,06,26,07,51,14.50
2015,06,26,07,52,14.50
2015,06,26,07,53,14.50
2015,06,26,07,54,14.40
2015,06,26,07,55,14.40
2015,06,26,07,56,14.40
2015,06,26,07,57,14.40
2015,06,26,07,58,14.40
2015,06,26,07,59,14.30
2015,06,26,08,00,14.30
2015,06,26,08,01,14.30
2015,06,26,08,02,14.30
2015,06,26,08,03,14.40
2015,06,26,08,04,14.40
2015,06,26,08,05,14.40
2015,06,26,08,06,14.40
2015,06,26,08,07,14.40
2015,06,26,08,08,14.40
2015,06,26,08,09,14.50
2015,06,26,08,10,14.50
2015,06,26,08,11,14.60
2015,06,26,08,12,14.60
2015,06,26,08,13,14.60
2015,06,26,08,14,14.60
2015,06,26,08,15,14.60
2015,06,26,08,16,14.60
2015,06,26,08,17,14.60
2015,06,26,08,18,14.60
2015,06,26,08,19,14.60
2015,06,26,08,20,14.60
2015,06,26,08,21,14.60
2015,06,26,08,22,14.60
2015,06,26,08,23,14.60
2015,06,26,08,24,14.60
2015,06,26,08,25,14.60
2015,06,26,08,26,14.50
2015,06,26,08,27,14.50
2015,06,26,08,28,14.50
2015,06,26,08,29,14.60
2015,06,26,08,30,14.60
2015,06,26,08,31,14.60
2015,06,26,08,32,14.60
2015,06,26,08,33,14.70
2015,06,26,08,34,14.70
2015,06,26,08,35,14.70
2015,06,26,08,36,14.70
2015,06,26,08,37,14.70
2015,06,26,08,38,14.70
2015,06,26,08,39,14.70
2015,06,26,08,40,14.70
2015,06,26,08,41,14.70
2015,06,26,08,42,14.70
2015,06,26,08,43,14.70
2015,06,26,08,44,14.70
2015,06,26,08,45,14.70
2015,06,26,08,46,14.70
2015,06,26,08,47,14.70
2015,06,26,08,48,14.80
2015,06,26,08,49,14.80
2015,06,26,08,50,14.80
2015,06,26,08,51,14.80
2015,06,26,08,52,14.70
2015,06,26,08,53,14.70
2015,06,26,08,54,14.70
2015,06,26,08,55,14.60
2015,06,26,08,56,14.60
2015,06,26,08,57,14.60
2015,06,26,08,58,14.60
2015,06,26,08,59,14.60
2015,06,26,09,00,14.60
2015,06,26,09,01,14.60
2015,06,26,09,02,14.60
2015,06,26,09,03,14.60
2015,06,26,09,04,14.60
2015,06,26,09,05,14.60
2015,06,26,09,06,14.60
2015,06,26,09,07,14.60
2015,06,26,09,08,14.60
2015,06,26,09,09,14.70
2015,06,26,09,10,14.70
2015,06,26,09,11,14.70
2015,06,26,09,12,14.80
2015,06,26,09,13,14.80
2015,06,26,09,14,14.80
2015,06,26,09,15,14.80
2015,06,26,09,16,14.80
2015,06,26,09,17,14.70
2015,06,26,09,18,14.70
2015,06,26,09,19,14.70
2015,06,26,09,20,14.80
2015,06,26,09,21,14.80
2015,06,26,09,22,14.80
2015,06,26,09,23,14.80
2015,06,26,09,24,14.80
2015,06,26,09,25,14.80
2015,06,26,09,26,14.80
2015,06,26,09,27,14.80
2015,06,26,09,28,14.80
2015,06,26,09,29,14.80
2015,06,26,09,30,14.70
2015,06,26,09,31,14.80
2015,06,26,09,32,14.70
2015,06,26,09,33,14.80
2015,06,26,09,34,14.70
2015,06,26,09,35,14.70
2015,06,26,09,36,14.70
2015,06,26,09,37,14.70
2015,06,26,09,38,14.70
2015,06,26,09,39,14.70
2015,06,26,09,40,14.70
2015,06,26,09,41,14.70
2015,06,26,09,42,14.70
2015,06,26,09,43,14.70
2015,06,26,09,44,14.70
2015,06,26,09,45,14.70
2015,06,26,09,46,14.80
2015,06,26,09,47,14.80
2015,06,26,09,48,14.80
2015,06,26,09,49,14.80
2015,06,26,09,50,14.80
2015,06,26,09,51,14.80
2015,06,26,09,52,14.80
2015,06,26,09,53,14.80
2015,06,26,09,54,14.70
2015,06,26,09,55,14.70
2015,06,26,09,56,14.70
2015,06,26,09,57,14.70
2015,06,26,09,58,14.80
2015,06,26,09,59,14.80
2015,06,26,10,00,14.80
2015,06,26,10,01,14.80
2015,06,26,10,02,14.80
2015,06,26,10,03,14.80
2015,06,26,10,04,14.90
2015,06,26,10,05,14.90
2015,06,26,10,06,14.80
2015,06,26,10,07,14.80
2015,06,26,10,08,14.80
2015,06,26,10,09,14.80
2015,06,26,10,10,14.90
2015,06,26,10,11,14.90
2015,06,26,10,12,15.00
2015,06,26,10,13,15.00
2015,06,26,10,14,15.10
2015,06,26,10,15,15.10
2015,06,26,10,16,15.20
2015,06,26,10,17,15.20
2015,06,26,10,18,15.20
2015,06,26,10,19,15.30
2015,06,26,10,20,15.30
2015,06,26,10,21,15.40
2015,06,26,10,22,15.40
2015,06,26,10,23,15.60
2015,06,26,10,24,15.70
2015,06,26,10,25,15.80
2015,06,26,10,26,15.90
2015,06,26,10,27,16.00
2015,06,26,10,28,16.10
2015,06,26,10,29,16.20
2015,06,26,10,30,16.30
2015,06,26,10,31,16.30
2015,06,26,10,32,16.40
2015,06,26,10,33,16.40
2015,06,26,10,34,16.50
2015,06,26,10,35,16.50
2015,06,26,10,36,16.60
2015,06,26,10,37,16.70
2015,06,26,10,38,16.80
2015,06,26,10,39,16.80
2015,06,26,10,40,16.90
2015,06,26,10,41,16.90
2015,06,26,10,42,16.90
2015,06,26,10,43,16.90
2015,06,26,10,44,16.90
2015,06,26,10,45,17.00
2015,06,26,10,46,17.10
2015,06,26,10,47,17.20
2015,06,26,10,48,17.20
2015,06,26,10,49,17.30
2015,06,26,10,50,17.30
2015,06,26,10,51,17.40
2015,06,26,10,52,17.40
2015,06,26,10,53,17.50
2015,06,26,10,54,17.50
2015,06,26,10,55,17.60
2015,06,26,10,56,17.70
2015,06,26,10,57,17.80
2015,06,26,10,58,18.00
2015,06,26,10,59,18.10
2015,06,26,11,00,18.30
2015,06,26,11,01,18.40
2015,06,26,11,02,18.50
2015,06,26,11,03,18.60
2015,06,26,11,04,18.60
2015,06,26,11,05,18.70
2015,06,26,11,06,18.70
2015,06,26,11,07,18.70
2015,06,26,11,08,18.80
2015,06,26,11,09,18.80
2015,06,26,11,10,18.90
2015,06,26,11,11,18.90
2015,06,26,11,12,18.90
2015,06,26,11,13,18.90
2015,06,26,11,14,18.90
2015,06,26,11,15,18.90
2015,06,26,11,16,18.90
2015,06,26,11,17,18.80
2015,06,26,11,18,18.80
2015,06,26,11,19,18.80
2015,06,26,11,20,18.70
2015,06,26,11,21,18.70
2015,06,26,11,22,18.70
2015,06,26,11,23,18.60
2015,06,26,11,24,18.50
2015,06,26,11,25,18.40
2015,06,26,11,26,18.30
2015,06,26,11,27,18.20
2015,06,26,11,28,18.10
2015,06,26,11,29,17.90
2015,06,26,11,30,17.90
2015,06,26,11,31,17.90
2015,06,26,11,32,18.00
2015,06,26,11,33,18.00
2015,06,26,11,34,18.10
2015,06,26,11,35,18.10
2015,06,26,11,36,18.20
2015,06,26,11,37,18.20
2015,06,26,11,38,18.30
2015,06,26,11,39,18.30
2015,06,26,11,40,18.30
2015,06,26,11,41,18.40
2015,06,26,11,42,18.50
2015,06,26,11,43,18.50
2015,06,26,11,44,18.50
2015,06,26,11,45,18.50
2015,06,26,11,46,18.60
2015,06,26,11,47,18.60
2015,06,26,11,48,18.60
2015,06,26,11,49,18.70
2015,06,26,11,50,18.70
2015,06,26,11,51,18.70
2015,06,26,11,52,18.70
2015,06,26,11,53,18.70
2015,06,26,11,54,18.70
2015,06,26,11,55,18.80
2015,06,26,11,56,18.80
2015,06,26,11,57,18.80
2015,06,26,11,58,18.80
2015,06,26,11,59,18.70
2015,06,26,12,00,18.60
2015,06,26,12,01,18.50
2015,06,26,12,02,18.40
2015,06,26,12,03,18.30
2015,06,26,12,04,18.20
2015,06,26,12,05,18.10
2015,06,26,12,06,18.00
2015,06,26,12,07,17.80
2015,06,26,12,08,17.70
2015,06,26,12,09,17.70
2015,06,26,12,10,17.70
2015,06,26,12,11,17.60
2015,06,26,12,12,17.60
2015,06,26,12,13,17.60
2015,06,26,12,14,17.60
2015,06,26,12,15,17.60
2015,06,26,12,16,17.60
2015,06,26,12,17,17.60
2015,06,26,12,18,17.60
2015,06,26,12,19,17.60
2015,06,26,12,20,17.50
2015,06,26,12,21,17.50
2015,06,26,12,22,17.40
2015,06,26,12,23,17.40
2015,06,26,12,24,17.40
2015,06,26,12,25,17.40
2015,06,26,12,26,17.40
2015,06,26,12,27,17.40
2015,06,26,12,28,17.50
2015,06,26,12,29,17.50
2015,06,26,12,30,17.50
2015,06,26,12,31,17.40
2015,06,26,12,32,17.40
2015,06,26,12,33,17.30
2015,06,26,12,34,17.20
2015,06,26,12,35,17.10
2015,06,26,12,36,17.10
2015,06,26,12,37,17.10
2015,06,26,12,38,17.10
2015,06,26,12,39,17.20
2015,06,26,12,40,17.20
2015,06,26,12,41,17.20
2015,06,26,12,42,17.20
2015,06,26,12,43,17.30
2015,06,26,12,44,17.50
2015,06,26,12,45,17.60
2015,06,26,12,46,17.60
2015,06,26,12,47,17.60
2015,06,26,12,48,17.70
2015,06,26,12,49,17.70
2015,06,26,12,50,17.70
2015,06,26,12,51,17.80
2015,06,26,12,52,17.90
2015,06,26,12,53,18.00
2015,06,26,12,54,18.10
2015,06,26,12,55,18.10
2015,06,26,12,56,18.20
2015,06,26,12,57,18.20
2015,06,26,12,58,18.30
2015,06,26,12,59,18.30
2015,06,26,13,00,18.20
2015,06,26,13,01,18.10
2015,06,26,13,02,18.00
2015,06,26,13,03,17.90
2015,06,26,13,04,17.90
2015,06,26,13,05,17.80
2015,06,26,13,06,17.80
2015,06,26,13,07,17.80
2015,06,26,13,08,17.80
2015,06,26,13,09,17.90
2015,06,26,13,10,18.00
2015,06,26,13,11,18.10
2015,06,26,13,12,18.30
2015,06,26,13,13,18.40
2015,06,26,13,14,18.60
2015,06,26,13,15,18.70
2015,06,26,13,16,18.90
2015,06,26,13,17,19.00
2015,06,26,13,18,19.20
2015,06,26,13,19,19.30
2015,06,26,13,20,19.30
2015,06,26,13,21,19.20
2015,06,26,13,22,19.00
2015,06,26,13,23,18.90
2015,06,26,13,24,18.80
2015,06,26,13,25,18.80
2015,06,26,13,26,18.70
2015,06,26,13,27,18.60
2015,06,26,13,28,18.50
2015,06,26,13,29,18.50
2015,06,26,13,30,18.50
2015,06,26,13,31,18.50
2015,06,26,13,32,18.50
2015,06,26,13,33,18.60
2015,06,26,13,34,18.60
2015,06,26,13,35,18.70
2015,06,26,13,36,18.80
2015,06,26,13,37,18.80
2015,06,26,13,38,18.90
2015,06,26,13,39,18.90
2015,06,26,13,40,19.00
2015,06,26,13,41,19.00
2015,06,26,13,42,19.10
2015,06,26,13,43,19.10
2015,06,26,13,44,19.10
2015,06,26,13,45,19.10
2015,06,26,13,46,19.20
2015,06,26,13,47,19.20
2015,06,26,13,48,19.20
2015,06,26,13,49,19.10
2015,06,26,13,50,19.10
2015,06,26,13,51,19.10
2015,06,26,13,52,19.00
2015,06,26,13,53,19.10
2015,06,26,13,54,19.10
2015,06,26,13,55,19.10
2015,06,26,13,56,19.10
2015,06,26,13,57,19.10
2015,06,26,13,58,19.20
2015,06,26,13,59,19.20
2015,06,26,14,00,19.10
2015,06,26,14,01,19.10
2015,06,26,14,02,19.00
2015,06,26,14,03,18.80
2015,06,26,14,04,18.70
2015,06,26,14,05,18.60
2015,06,26,14,06,18.60
2015,06,26,14,07,18.60
2015,06,26,14,08,18.60
2015,06,26,14,09,18.70
2015,06,26,14,10,18.80
2015,06,26,14,11,18.80
2015,06,26,14,12,18.80
2015,06,26,14,13,18.80
2015,06,26,14,14,18.90
2015,06,26,14,15,18.90
2015,06,26,14,16,18.90
2015,06,26,14,17,18.90
2015,06,26,14,18,19.00
2015,06,26,14,19,19.00
2015,06,26,14,20,19.10
2015,06,26,14,21,19.00
2015,06,26,14,22,18.90
2015,06,26,14,23,18.80
2015,06,26,14,24,18.80
2015,06,26,14,25,18.60
2015,06,26,14,26,18.50
2015,06,26,14,27,18.40
2015,06,26,14,28,18.30
2015,06,26,14,29,18.20
2015,06,26,14,30,18.10
2015,06,26,14,31,18.00
2015,06,26,14,32,18.00
2015,06,26,14,33,18.00
2015,06,26,14,34,18.10
2015,06,26,14,35,18.10
2015,06,26,14,36,18.10
2015,06,26,14,37,18.20
2015,06,26,14,38,18.20
2015,06,26,14,39,18.30
2015,06,26,14,40,18.30
2015,06,26,14,41,18.30
2015,06,26,14,42,18.30
2015,06,26,14,43,18.30
2015,06,26,14,44,18.30
2015,06,26,14,45,18.20
2015,06,26,14,46,18.10
2015,06,26,14,47,18.10
2015,06,26,14,48,18.10
2015,06,26,14,49,18.10
2015,06,26,14,50,18.00
2015,06,26,14,51,17.90
2015,06,26,14,52,17.90
2015,06,26,14,53,17.90
2015,06,26,14,54,18.00
2015,06,26,14,55,18.00
2015,06,26,14,56,18.00
2015,06,26,14,57,18.10
2015,06,26,14,58,18.00
2015,06,26,14,59,18.00
2015,06,26,15,00,17.90
2015,06,26,15,01,17.90
2015,06,26,15,02,17.80
2015,06,26,15,03,17.70
2015,06,26,15,04,17.60
2015,06,26,15,05,17.60
2015,06,26,15,06,17.70
2015,06,26,15,07,17.70
2015,06,26,15,08,17.70
2015,06,26,15,09,17.70
2015,06,26,15,10,17.70
2015,06,26,15,11,17.70
2015,06,26,15,12,17.70
2015,06,26,15,13,17.70
2015,06,26,15,14,17.70
2015,06,26,15,15,17.70
2015,06,26,15,16,17.70
2015,06,26,15,17,17.70
2015,06,26,15,18,17.70
2015,06,26,15,19,17.70
2015,06,26,15,20,17.80
2015,06,26,15,21,17.90
2015,06,26,15,22,17.90
2015,06,26,15,23,18.00
2015,06,26,15,24,18.10
2015,06,26,15,25,18.20
2015,06,26,15,26,18.30
2015,06,26,15,27,18.30
2015,06,26,15,28,18.20
2015,06,26,15,29,18.20
2015,06,26,15,30,18.10
2015,06,26,15,31,17.90
2015,06,26,15,32,17.80
2015,06,26,15,33,17.80
2015,06,26,15,34,17.70
2015,06,26,15,35,17.80
2015,06,26,15,36,17.90
2015,06,26,15,37,17.90
2015,06,26,15,38,18.00
2015,06,26,15,39,18.10
2015,06,26,15,40,18.20
2015,06,26,15,41,18.20
2015,06,26,15,42,18.20
2015,06,26,15,43,18.10
2015,06,26,15,44,18.10
2015,06,26,15,45,18.00
2015,06,26,15,46,18.00
2015,06,26,15,47,18.00
2015,06,26,15,48,18.00
2015,06,26,15,49,18.00
2015,06,26,15,50,18.10
2015,06,26,15,51,18.20
2015,06,26,15,52,18.30
2015,06,26,15,53,18.30
2015,06,26,15,54,18.40
2015,06,26,15,55,18.40
2015,06,26,15,56,18.50
2015,06,26,15,57,18.60
2015,06,26,15,58,18.60
2015,06,26,15,59,18.60
2015,06,26,16,00,18.60
2015,06,26,16,01,18.60
2015,06,26,16,02,18.50
2015,06,26,16,03,18.50
2015,06,26,16,04,18.50
2015,06,26,16,05,18.40
2015,06,26,16,06,18.40
2015,06,26,16,07,18.40
2015,06,26,16,08,18.30
2015,06,26,16,09,18.30
2015,06,26,16,10,18.20
2015,06,26,16,11,18.20
2015,06,26,16,12,18.20
2015,06,26,16,13,18.20
2015,06,26,16,14,18.20
2015,06,26,16,15,18.30
2015,06,26,16,16,18.30
2015,06,26,16,17,18.30
2015,06,26,16,18,18.30
2015,06,26,16,19,18.30
2015,06,26,16,20,18.30
2015,06,26,16,21,18.40
2015,06,26,16,22,18.40
2015,06,26,16,23,18.50
2015,06,26,16,24,18.50
2015,06,26,16,25,18.60
2015,06,26,16,26,18.60
2015,06,26,16,27,18.70
2015,06,26,16,28,18.70
2015,06,26,16,29,18.70
2015,06,26,16,30,18.70
2015,06,26,16,31,18.60
2015,06,26,16,32,18.60
2015,06,26,16,33,18.60
2015,06,26,16,34,18.60
2015,06,26,16,35,18.60
2015,06,26,16,36,18.60
2015,06,26,16,37,18.60
2015,06,26,16,38,18.70
2015,06,26,16,39,18.70
2015,06,26,16,40,18.70
2015,06,26,16,41,18.70
2015,06,26,16,42,18.80
2015,06,26,16,43,18.80
2015,06,26,16,44,18.90
2015,06,26,16,45,19.00
2015,06,26,16,46,19.00
2015,06,26,16,47,18.90
2015,06,26,16,48,18.90
2015,06,26,16,49,18.90
2015,06,26,16,50,18.80
2015,06,26,16,51,18.80
2015,06,26,16,52,18.80
2015,06,26,16,53,18.80
2015,06,26,16,54,18.80
2015,06,26,16,55,18.80
2015,06,26,16,56,18.80
2015,06,26,16,57,18.90
2015,06,26,16,58,18.90
2015,06,26,16,59,19.00
2015,06,26,17,00,19.00
2015,06,26,17,01,19.10
2015,06,26,17,02,19.10
2015,06,26,17,03,19.10
2015,06,26,17,04,19.10
2015,06,26,17,05,19.20
2015,06,26,17,06,19.20
2015,06,26,17,07,19.20
2015,06,26,17,08,19.30
2015,06,26,17,09,19.30
2015,06,26,17,10,19.30
2015,06,26,17,11,19.40
2015,06,26,17,12,19.40
2015,06,26,17,13,19.40
2015,06,26,17,14,19.30
2015,06,26,17,15,19.30
2015,06,26,17,16,19.30
2015,06,26,17,17,19.40
2015,06,26,17,18,19.30
2015,06,26,17,19,19.30
2015,06,26,17,20,19.30
2015,06,26,17,21,19.20
2015,06,26,17,22,19.20
2015,06,26,17,23,19.20
2015,06,26,17,24,19.10
2015,06,26,17,25,19.00
2015,06,26,17,26,19.00
2015,06,26,17,27,19.00
2015,06,26,17,28,19.10
2015,06,26,17,29,19.10
2015,06,26,17,30,19.10
2015,06,26,17,31,19.10
2015,06,26,17,32,19.20
2015,06,26,17,33,19.20
2015,06,26,17,34,19.20
2015,06,26,17,35,19.30
2015,06,26,17,36,19.30
2015,06,26,17,37,19.30
2015,06,26,17,38,19.40
2015,06,26,17,39,19.40
2015,06,26,17,40,19.40
2015,06,26,17,41,19.40
2015,06,26,17,42,19.50
2015,06,26,17,43,19.60
2015,06,26,17,44,19.60
2015,06,26,17,45,19.60
2015,06,26,17,46,19.70
2015,06,26,17,47,19.70
2015,06,26,17,48,19.80
2015,06,26,17,49,19.80
2015,06,26,17,50,19.80
2015,06,26,17,51,19.80
2015,06,26,17,52,19.80
2015,06,26,17,53,19.80
2015,06,26,17,54,19.80
2015,06,26,17,55,19.80
2015,06,26,17,56,19.80
2015,06,26,17,57,19.80
2015,06,26,17,58,19.80
2015,06,26,17,59,19.70
2015,06,26,18,00,19.70
2015,06,26,18,01,19.70
2015,06,26,18,02,19.70
2015,06,26,18,03,19.70
2015,06,26,18,04,19.70
2015,06,26,18,05,19.70
2015,06,26,18,06,19.70
2015,06,26,18,07,19.70
2015,06,26,18,08,19.70
2015,06,26,18,09,19.70
2015,06,26,18,10,19.80
2015,06,26,18,11,19.80
2015,06,26,18,12,19.80
2015,06,26,18,13,19.90